Location: Kosice
(48.7170°N, 21.2500°E)
Time: 06:58:59
(UTC+02:00)

ISS - Pass Details

Date: 26 March 2019
Orbit: 408 x 410 km, 51.6° (Epoch: 22 April)

Event Time Altitude Azimuth Distance (km) Brightness Sun altitude
Rises 19:24:00 0° 258° (WSW) 2,333 1.0 -14.9°
Reaches altitude 10° 19:26:06 10° 261° (W) 1,473 -0.1 -15.2°
Maximum altitude 19:29:23 66° 345° (NNW) 451 -3.5 -15.7°
Enters shadow 19:31:01 27° 61° (ENE) 827 -2.6 -16.0°
